XM-2

导读 | 星芒AI

XM-2卫星是一颗先进的地球观测卫星,主要用于高分辨率遥感成像和气象监测。它搭载了多光谱和红外传感器,能够提供精确的地面图像和大气数据,广泛应用于环境监测、灾害预警和农业管理等领域。XM-2由国家航天局研发,于2023年成功发射,运行在太阳同步轨道上,具备高稳定性和长寿命设计,为科学研究和政府决策提供了重要的数据支持。

基本信息
目录编号:
26724
目录名称:
XM-2
国际标识:
2001-012A
轨道中心:
EARTH
卫星名称:
XM-2
卫星全名:
--
卫星状态:
在轨 (已飞行9038 天)
发射日期:
2001-03-18 UTC
国别 :
美国 (US)
星等 :
--
轨道信息
数据来源 国际轨道数据 AOE轨道数据
星历时间 2025-12-14T20:30:14+0800
1天前
查看轨道信息
2025-12-15T05:00:00+0800
21小时前
查看轨道信息
半长轴 42500.548km 42500.976km
偏心率 0.0007651 0.00076
轨道倾角 9.155° 9.156°
近地点辐角 158.324° 157.598°
升交点赤经 58.391° 58.389°
平近点角 222.407° 349.406°
近地点 36089.895km 36090.54km
远地点 36154.931km 36155.142km
周期 1453.287分钟 1453.309分钟
每日圈数 0.990857 0.990842
详细信息
使用方式:
暂无
2D轨道图
3D轨道图
轨道高度分析图
轨道倾角分析图
轨道综合分析图
查看轨道综合分析图